Погода в Шурчи

Узбекистан     38°00′39″N   67°47′26″E
темп.,
°C
ветер,
м/с
пор.,
м/с
влажн.,
%
обл.,
%
осадки,
мм/ч
давл.,
гПа
погр.,
м
27 февраля, сб
сб2723:000ююз23400 0.0 103078
02:00−2ююз11430 0.0 102921
05:00−2ююз11415 0.0 102821
08:000юз223797 0.0 1030130
11:00+4ю113199 0.0 1031590
14:00+7зсз112948 0.0 1029889
17:00+8зсз012824 0.0 1028928
20:00+4св01440 0.0 102922
28 февраля, вс
вс2823:00+4св33410 0.0 102733
02:00+3св34490 0.0 102567
05:00+3ссв33510 0.0 102240
08:00+4ссв23480 0.0 102240
11:00+11ссв24260 0.0 1020457
14:00+15св23160 0.0 1017952
17:00+16с12190 0.0 1017698
20:00+9ю23330 0.0 101823
1 марта, пн
пн123:00+7сз11400 0.0 101822
02:00+7ссв34360 0.0 101923
05:00+6ссв34350 0.0 101843
08:00+7ссв343684 0.0 101963
11:00+15св342260 0.0 1019437
14:00+19св23157 0.0 1018832
17:00+19сз11203 0.0 1017176
20:00+11ююз11270 0.0 101923
2 марта, вт
вт223:00+10св232828 0.0 101923
02:00+10ссв343084 0.0 101936
05:00+10ссв452992 0.0 101773
08:00+11ссв3429100 0.0 101877
11:00+16с3423100 0.0 1019224
14:00+20в1215100 0.0 1018826
17:00+19юз3521100 0.0 1018239
20:00+14ю2230100 0.0 102028
3 марта, ср
ср323:00+13св343499 0.0 102042
02:00+13ссв3545100 0.0 1019129
05:00+11св344894 0.0 101851
08:00+11ссв355118 0.0 1019101
11:00+17св223352 0.0 1019635
14:00+19ююз222545 0.0 10171623
17:00+19юз222823 0.0 10161658
20:00+15ююз224067 0.0 101623